Time,TemperatureF,DewpointF,PressureIn,WindDirection,WindDirectionDegrees,WindSpeedMPH,WindSpeedGustMPH,Humidity,HourlyPrecipIn,Conditions,Clouds,dailyrainin,SoftwareType,DateUTC
2013-09-12 00:01:00,71.2,70.1,29.50,NE,45,0.0,0.0,96,0.00,,,0.00,VWS V14.01,2013-09-12 04:01:00,
2013-09-12 00:03:00,71.2,70.1,29.50,NNW,338,0.0,0.0,96,0.00,,,0.00,VWS V14.01,2013-09-12 04:03:00,
2013-09-12 00:08:00,71.2,70.1,29.50,NNW,338,0.0,0.0,96,0.00,,,0.00,VWS V14.01,2013-09-12 04:08:00,
2013-09-12 00:13:00,71.2,70.1,29.50,NNW,338,0.0,0.0,96,0.00,,,0.00,VWS V14.01,2013-09-12 04:13:00,
2013-09-12 00:18:00,71.2,70.1,29.50,NW,315,0.0,0.0,96,0.00,,,0.00,VWS V14.01,2013-09-12 04:18:00,
2013-09-12 00:23:00,71.1,69.9,29.50,North,0,0.0,0.0,96,0.00,,,0.00,VWS V14.01,2013-09-12 04:23:00,
2013-09-12 00:28:00,71.1,69.9,29.50,North,0,0.0,0.0,96,0.00,,,0.00,VWS V14.01,2013-09-12 04:28:00,
2013-09-12 00:33:00,71.1,69.9,29.50,NNW,338,0.0,0.0,96,0.00,,,0.00,VWS V14.01,2013-09-12 04:33:00,
2013-09-12 00:38:00,71.2,70.1,29.47,WNW,292,1.3,1.3,96,0.00,,,0.00,VWS V14.01,2013-09-12 04:38:00,
2013-09-12 00:44:00,71.2,70.1,29.47,NNE,22,0.0,0.0,96,0.00,,,0.00,VWS V14.01,2013-09-12 04:44:00,
2013-09-12 00:49:00,71.2,70.1,29.47,SE,135,0.0,0.0,96,0.00,,,0.00,VWS V14.01,2013-09-12 04:49:00,
2013-09-12 00:54:00,71.2,70.1,29.47,WSW,248,2.2,2.2,96,0.00,,,0.00,VWS V14.01,2013-09-12 04:54:00,
2013-09-12 00:59:00,71.1,69.9,29.47,WSW,248,0.0,0.0,96,0.00,,,0.00,VWS V14.01,2013-09-12 04:59:00,
2013-09-12 01:04:00,70.9,69.7,29.47,West,270,0.0,0.0,96,0.00,,,0.00,VWS V14.01,2013-09-12 05:04:00,
2013-09-12 01:09:00,70.9,69.7,29.47,WSW,248,2.7,2.7,96,0.00,,,0.00,VWS V14.01,2013-09-12 05:09:00,
2013-09-12 01:14:00,70.7,69.5,29.47,WSW,248,2.7,2.7,96,0.00,,,0.00,VWS V14.01,2013-09-12 05:14:00,
2013-09-12 01:19:00,70.7,69.5,29.47,WNW,292,1.1,1.1,96,0.00,,,0.00,VWS V14.01,2013-09-12 05:19:00,
2013-09-12 01:24:00,70.7,69.5,29.47,WNW,292,2.5,2.5,96,0.00,,,0.00,VWS V14.01,2013-09-12 05:24:00,
2013-09-12 01:29:00,70.7,69.5,29.47,West,270,1.6,1.6,96,0.00,,,0.00,VWS V14.01,2013-09-12 05:29:00,
2013-09-12 01:35:00,70.7,69.5,29.47,West,270,0.0,0.0,96,0.00,,,0.00,VWS V14.01,2013-09-12 05:35:00,
2013-09-12 01:40:00,70.7,69.8,29.47,WNW,292,0.0,0.0,97,0.00,,,0.00,VWS V14.01,2013-09-12 05:40:00,
2013-09-12 01:45:00,70.7,69.8,29.47,NNW,338,0.0,0.0,97,0.00,,,0.00,VWS V14.01,2013-09-12 05:45:00,
2013-09-12 01:50:00,70.7,69.8,29.47,NNW,338,0.0,0.0,97,0.00,,,0.00,VWS V14.01,2013-09-12 05:50:00,
2013-09-12 01:55:00,70.7,69.8,29.47,NNW,338,0.0,0.0,97,0.00,,,0.00,VWS V14.01,2013-09-12 05:55:00,
2013-09-12 02:00:00,70.9,70.0,29.47,NNW,338,0.0,0.0,97,0.00,,,0.00,VWS V14.01,2013-09-12 06:00:00,
2013-09-12 02:05:00,70.9,70.0,29.47,SW,225,0.0,0.0,97,0.00,,,0.00,VWS V14.01,2013-09-12 06:05:00,
2013-09-12 02:10:00,70.9,70.0,29.47,SW,225,1.1,1.1,97,0.00,,,0.00,VWS V14.01,2013-09-12 06:10:00,
2013-09-12 02:15:00,70.9,70.0,29.47,SW,225,0.0,0.0,97,0.00,,,0.00,VWS V14.01,2013-09-12 06:15:00,
2013-09-12 02:20:00,70.9,70.0,29.47,SW,225,0.0,0.0,97,0.00,,,0.00,VWS V14.01,2013-09-12 06:20:00,
2013-09-12 02:25:00,70.9,70.0,29.47,WSW,248,0.0,0.0,97,0.00,,,0.00,VWS V14.01,2013-09-12 06:25:00,
2013-09-12 02:30:00,70.9,70.0,29.47,West,270,0.0,0.0,97,0.00,,,0.00,VWS V14.01,2013-09-12 06:30:00,
2013-09-12 02:35:00,70.9,70.0,29.47,SSW,202,0.0,0.0,97,0.00,,,0.00,VWS V14.01,2013-09-12 06:35:00,
2013-09-12 02:40:00,70.9,70.0,29.44,WNW,292,0.0,0.0,97,0.00,,,0.00,VWS V14.01,2013-09-12 06:40:00,
2013-09-12 02:45:00,70.9,70.0,29.44,NNW,338,0.0,0.0,97,0.00,,,0.00,VWS V14.01,2013-09-12 06:45:00,
2013-09-12 02:50:00,70.9,70.0,29.44,SW,225,0.0,0.0,97,0.00,,,0.00,VWS V14.01,2013-09-12 06:50:00,
2013-09-12 02:55:00,70.9,70.0,29.44,WSW,248,0.0,0.0,97,0.00,,,0.00,VWS V14.01,2013-09-12 06:55:00,
2013-09-12 03:00:00,70.7,69.8,29.44,SW,225,0.0,0.0,97,0.00,,,0.00,VWS V14.01,2013-09-12 07:00:00,
2013-09-12 03:05:00,70.7,69.8,29.44,SSW,202,0.0,0.0,97,0.00,,,0.00,VWS V14.01,2013-09-12 07:05:00,
2013-09-12 03:10:00,70.7,69.8,29.44,SSW,202,0.0,0.0,97,0.00,,,0.00,VWS V14.01,2013-09-12 07:10:00,
2013-09-12 03:15:00,70.7,69.8,29.44,WSW,248,0.0,0.0,97,0.00,,,0.00,VWS V14.01,2013-09-12 07:15:00,
2013-09-12 03:20:00,70.7,69.8,29.44,WSW,248,0.0,0.0,97,0.00,,,0.00,VWS V14.01,2013-09-12 07:20:00,
2013-09-12 03:25:00,70.5,69.6,29.44,SSE,158,2.5,2.5,97,0.00,,,0.00,VWS V14.01,2013-09-12 07:25:00,
2013-09-12 03:31:00,70.5,69.6,29.44,SE,135,0.0,0.0,97,0.00,,,0.00,VWS V14.01,2013-09-12 07:31:00,
2013-09-12 03:36:00,70.5,69.6,29.44,SSE,158,0.0,0.0,97,0.00,,,0.00,VWS V14.01,2013-09-12 07:36:00,
2013-09-12 03:41:00,70.5,69.6,29.44,ESE,112,2.0,2.0,97,0.00,,,0.00,VWS V14.01,2013-09-12 07:41:00,
2013-09-12 03:46:00,70.5,69.6,29.44,East,90,0.9,0.9,97,0.00,,,0.00,VWS V14.01,2013-09-12 07:46:00,
2013-09-12 03:51:00,70.5,69.6,29.44,SE,135,1.6,1.6,97,0.00,,,0.00,VWS V14.01,2013-09-12 07:51:00,
2013-09-12 03:56:00,70.5,69.6,29.44,SE,135,0.0,0.0,97,0.00,,,0.00,VWS V14.01,2013-09-12 07:56:00,
2013-09-12 04:01:00,70.5,69.6,29.44,NE,45,0.0,0.0,97,0.00,,,0.00,VWS V14.01,2013-09-12 08:01:00,
2013-09-12 04:06:00,70.5,69.6,29.44,ENE,68,0.0,0.0,97,0.00,,,0.00,VWS V14.01,2013-09-12 08:06:00,
2013-09-12 04:11:00,70.3,69.4,29.44,West,270,2.0,2.0,97,0.00,,,0.00,VWS V14.01,2013-09-12 08:11:00,
2013-09-12 04:16:00,70.3,69.4,29.44,West,270,0.0,0.0,97,0.00,,,0.00,VWS V14.01,2013-09-12 08:16:00,
2013-09-12 04:21:00,70.3,69.4,29.44,West,270,0.0,0.0,97,0.00,,,0.00,VWS V14.01,2013-09-12 08:21:00,
2013-09-12 04:26:00,70.3,69.4,29.44,West,270,1.6,1.6,97,0.00,,,0.00,VWS V14.01,2013-09-12 08:26:00,
2013-09-12 04:31:00,70.3,69.4,29.44,West,270,0.0,0.0,97,0.00,,,0.00,VWS V14.01,2013-09-12 08:31:00,
2013-09-12 04:37:00,70.3,69.4,29.44,SW,225,0.0,0.0,97,0.00,,,0.00,VWS V14.01,2013-09-12 08:37:00,
2013-09-12 04:42:00,70.3,69.4,29.44,West,270,0.0,0.0,97,0.00,,,0.00,VWS V14.01,2013-09-12 08:42:00,
2013-09-12 04:47:00,70.3,69.4,29.44,West,270,0.0,0.0,97,0.00,,,0.00,VWS V14.01,2013-09-12 08:47:00,
2013-09-12 04:52:00,70.3,69.4,29.44,SSW,202,0.0,0.0,97,0.00,,,0.00,VWS V14.01,2013-09-12 08:52:00,
2013-09-12 04:57:00,70.3,69.4,29.44,WNW,292,0.0,0.0,97,0.00,,,0.00,VWS V14.01,2013-09-12 08:57:00,
2013-09-12 05:02:00,70.3,69.4,29.44,WNW,292,0.0,0.0,97,0.00,,,0.00,VWS V14.01,2013-09-12 09:02:00,
2013-09-12 05:07:00,70.3,69.4,29.44,WNW,292,0.0,0.0,97,0.00,,,0.00,VWS V14.01,2013-09-12 09:07:00,
2013-09-12 05:12:00,70.3,69.4,29.44,WNW,292,0.0,0.0,97,0.00,,,0.00,VWS V14.01,2013-09-12 09:12:00,
2013-09-12 05:17:00,70.3,69.4,29.44,WNW,292,0.0,0.0,97,0.00,,,0.00,VWS V14.01,2013-09-12 09:17:00,
2013-09-12 05:22:00,70.3,69.4,29.44,WNW,292,0.0,0.0,97,0.00,,,0.00,VWS V14.01,2013-09-12 09:22:00,
2013-09-12 05:27:00,70.3,69.4,29.44,WNW,292,0.0,0.0,97,0.00,,,0.00,VWS V14.01,2013-09-12 09:27:00,
2013-09-12 05:32:00,70.3,69.4,29.44,SSW,202,0.0,0.0,97,0.00,,,0.00,VWS V14.01,2013-09-12 09:32:00,
2013-09-12 05:37:00,70.3,69.4,29.44,SSW,202,0.0,0.0,97,0.00,,,0.00,VWS V14.01,2013-09-12 09:37:00,
2013-09-12 05:42:00,70.3,69.4,29.44,SSW,202,0.0,0.0,97,0.00,,,0.00,VWS V14.01,2013-09-12 09:42:00,
2013-09-12 05:47:00,70.3,69.4,29.44,SSW,202,0.0,0.0,97,0.00,,,0.00,VWS V14.01,2013-09-12 09:47:00,
2013-09-12 05:53:00,70.2,69.3,29.44,SSW,202,2.0,2.0,97,0.00,,,0.00,VWS V14.01,2013-09-12 09:53:00,
2013-09-12 05:58:00,70.3,69.4,29.44,ESE,112,1.3,1.3,97,0.00,,,0.00,VWS V14.01,2013-09-12 09:58:00,
2013-09-12 06:03:00,70.3,69.4,29.44,SW,225,0.0,0.0,97,0.00,,,0.00,VWS V14.01,2013-09-12 10:03:00,
2013-09-12 06:08:00,70.2,69.3,29.44,SE,135,0.0,0.0,97,0.00,,,0.00,VWS V14.01,2013-09-12 10:08:00,
2013-09-12 06:13:00,70.2,69.3,29.44,NW,315,0.0,0.0,97,0.00,,,0.00,VWS V14.01,2013-09-12 10:13:00,
2013-09-12 06:18:00,70.2,69.3,29.44,NW,315,0.0,0.0,97,0.00,,,0.00,VWS V14.01,2013-09-12 10:18:00,
2013-09-12 06:23:00,70.2,69.3,29.44,SSE,158,0.0,0.0,97,0.00,,,0.00,VWS V14.01,2013-09-12 10:23:00,
2013-09-12 06:28:00,70.3,69.4,29.44,SSW,202,1.3,1.3,97,0.00,,,0.00,VWS V14.01,2013-09-12 10:28:00,
2013-09-12 06:33:00,70.2,69.3,29.44,SSE,158,0.0,0.0,97,0.00,,,0.00,VWS V14.01,2013-09-12 10:33:00,
2013-09-12 06:38:00,70.2,69.3,29.44,ENE,68,0.0,0.0,97,0.00,,,0.00,VWS V14.01,2013-09-12 10:38:00,
2013-09-12 06:43:00,70.2,69.3,29.44,SSE,158,1.3,1.3,97,0.00,,,0.00,VWS V14.01,2013-09-12 10:43:00,
2013-09-12 06:48:00,70.2,69.3,29.44,SE,135,0.0,0.0,97,0.00,,,0.00,VWS V14.01,2013-09-12 10:48:00,
2013-09-12 06:53:00,70.2,69.3,29.44,South,180,1.1,1.1,97,0.00,,,0.00,VWS V14.01,2013-09-12 10:53:00,
2013-09-12 06:58:00,70.2,69.3,29.44,SSE,158,2.2,2.2,97,0.00,,,0.00,VWS V14.01,2013-09-12 10:58:00,
2013-09-12 07:03:00,70.2,69.3,29.44,SE,135,2.2,2.2,97,0.00,,,0.00,VWS V14.01,2013-09-12 11:03:00,
2013-09-12 07:08:00,70.2,69.3,29.44,SSW,202,0.0,0.0,97,0.00,,,0.00,VWS V14.01,2013-09-12 11:08:00,
2013-09-12 07:14:00,70.0,69.1,29.44,SE,135,1.6,1.6,97,0.00,,,0.00,VWS V14.01,2013-09-12 11:14:00,
2013-09-12 07:19:00,70.0,69.1,29.44,SSW,202,2.7,2.7,97,0.00,,,0.00,VWS V14.01,2013-09-12 11:19:00,
2013-09-12 07:24:00,70.0,69.1,29.44,SSE,158,0.0,0.0,97,0.00,,,0.00,VWS V14.01,2013-09-12 11:24:00,
2013-09-12 07:29:00,70.2,69.3,29.44,South,180,0.0,0.0,97,0.00,,,0.00,VWS V14.01,2013-09-12 11:29:00,
2013-09-12 07:34:00,70.2,69.3,29.44,SSW,202,2.7,2.7,97,0.00,,,0.00,VWS V14.01,2013-09-12 11:34:00,
2013-09-12 07:39:00,70.2,69.3,29.44,WNW,292,3.4,3.4,97,0.00,,,0.00,VWS V14.01,2013-09-12 11:39:00,
2013-09-12 07:44:00,70.0,69.1,29.44,West,270,2.0,2.0,97,0.00,,,0.00,VWS V14.01,2013-09-12 11:44:00,
2013-09-12 07:49:00,70.0,69.1,29.44,West,270,0.0,0.0,97,0.00,,,0.00,VWS V14.01,2013-09-12 11:49:00,
2013-09-12 07:54:00,70.0,69.1,29.44,SSW,202,0.0,0.0,97,0.00,,,0.00,VWS V14.01,2013-09-12 11:54:00,
2013-09-12 07:59:00,70.2,69.3,29.44,WSW,248,0.0,0.0,97,0.00,,,0.00,VWS V14.01,2013-09-12 11:59:00,
2013-09-12 08:04:00,70.2,69.3,29.44,SE,135,2.0,2.0,97,0.00,,,0.00,VWS V14.01,2013-09-12 12:04:00,
2013-09-12 08:09:00,70.3,69.4,29.44,SSE,158,1.1,1.1,97,0.00,,,0.00,VWS V14.01,2013-09-12 12:09:00,
2013-09-12 08:15:00,70.3,69.8,29.44,SSW,202,0.0,0.0,98,0.00,,,0.00,VWS V14.01,2013-09-12 12:15:00,
2013-09-12 08:20:00,70.5,69.6,29.44,SE,135,1.3,1.3,97,0.00,,,0.00,VWS V14.01,2013-09-12 12:20:00,
2013-09-12 08:25:00,70.5,69.9,29.41,SW,225,0.0,0.0,98,0.00,,,0.00,VWS V14.01,2013-09-12 12:25:00,
2013-09-12 08:30:00,70.5,69.6,29.41,SSW,202,3.4,3.4,97,0.00,,,0.00,VWS V14.01,2013-09-12 12:30:00,
2013-09-12 08:35:00,70.5,69.6,29.41,SSW,202,0.0,0.0,97,0.00,,,0.00,VWS V14.01,2013-09-12 12:35:00,
2013-09-12 08:40:00,70.7,69.8,29.41,WSW,248,0.0,0.0,97,0.00,,,0.00,VWS V14.01,2013-09-12 12:40:00,
2013-09-12 08:45:00,70.7,69.8,29.41,SSW,202,0.0,0.0,97,0.00,,,0.00,VWS V14.01,2013-09-12 12:45:00,
2013-09-12 08:50:00,70.7,69.8,29.41,SSW,202,1.1,1.1,97,0.00,,,0.00,VWS V14.01,2013-09-12 12:50:00,
2013-09-12 08:55:00,70.9,70.0,29.41,West,270,1.6,1.6,97,0.00,,,0.00,VWS V14.01,2013-09-12 12:55:00,
2013-09-12 09:00:00,70.9,70.0,29.41,South,180,1.6,1.6,97,0.00,,,0.00,VWS V14.01,2013-09-12 13:00:00,
2013-09-12 09:05:00,70.9,70.0,29.41,SSW,202,0.0,0.0,97,0.00,,,0.00,VWS V14.01,2013-09-12 13:05:00,
2013-09-12 09:10:00,70.9,70.0,29.38,East,90,0.0,0.0,97,0.00,,,0.00,VWS V14.01,2013-09-12 13:10:00,
2013-09-12 09:15:00,71.1,70.2,29.38,SSW,202,3.1,3.1,97,0.00,,,0.00,VWS V14.01,2013-09-12 13:15:00,
2013-09-12 09:21:00,71.1,70.2,29.38,East,90,0.0,0.0,97,0.00,,,0.00,VWS V14.01,2013-09-12 13:21:00,
2013-09-12 09:26:00,71.2,70.3,29.38,SSE,158,2.0,2.0,97,0.00,,,0.00,VWS V14.01,2013-09-12 13:26:00,
2013-09-12 09:31:00,71.2,70.3,29.38,WSW,248,0.0,0.0,97,0.00,,,0.00,VWS V14.01,2013-09-12 13:31:00,
2013-09-12 09:36:00,71.6,70.7,29.38,SSW,202,1.6,1.6,97,0.00,,,0.00,VWS V14.01,2013-09-12 13:36:00,
2013-09-12 09:41:00,71.8,70.9,29.38,SSE,158,3.1,3.1,97,0.00,,,0.00,VWS V14.01,2013-09-12 13:41:00,
2013-09-12 09:46:00,72.0,71.1,29.38,SW,225,2.0,2.0,97,0.00,,,0.00,VWS V14.01,2013-09-12 13:46:00,
2013-09-12 09:51:00,72.1,71.2,29.38,South,180,3.4,3.4,97,0.00,,,0.00,VWS V14.01,2013-09-12 13:51:00,
2013-09-12 09:56:00,72.3,71.4,29.38,SSW,202,0.9,0.9,97,0.00,,,0.00,VWS V14.01,2013-09-12 13:56:00,
2013-09-12 10:01:00,72.3,71.4,29.38,South,180,3.8,3.8,97,0.00,,,0.00,VWS V14.01,2013-09-12 14:01:00,
2013-09-12 10:06:00,72.3,71.4,29.38,West,270,2.5,2.5,97,0.00,,,0.00,VWS V14.01,2013-09-12 14:06:00,
2013-09-12 10:11:00,72.3,71.1,29.38,SSW,202,3.6,3.6,96,0.00,,,0.00,VWS V14.01,2013-09-12 14:11:00,
2013-09-12 10:17:00,72.3,71.1,29.38,South,180,4.0,4.0,96,0.00,,,0.00,VWS V14.01,2013-09-12 14:17:00,
2013-09-12 10:22:00,72.5,71.3,29.38,SSW,202,2.9,2.9,96,0.00,,,0.00,VWS V14.01,2013-09-12 14:22:00,
2013-09-12 10:27:00,72.7,71.5,29.38,SSW,202,4.0,4.0,96,0.00,,,0.00,VWS V14.01,2013-09-12 14:27:00,
2013-09-12 10:32:00,72.7,71.5,29.38,WSW,248,0.9,0.9,96,0.00,,,0.00,VWS V14.01,2013-09-12 14:32:00,
2013-09-12 10:37:00,72.9,71.3,29.38,WSW,248,3.4,3.4,95,0.00,,,0.00,VWS V14.01,2013-09-12 14:37:00,
2013-09-12 10:42:00,73.0,71.8,29.38,South,180,0.9,0.9,96,0.00,,,0.00,VWS V14.01,2013-09-12 14:42:00,
2013-09-12 10:47:00,73.0,71.5,29.38,SSW,202,4.3,4.3,95,0.00,,,0.00,VWS V14.01,2013-09-12 14:47:00,
2013-09-12 10:52:00,73.2,71.7,29.38,SSW,202,2.5,2.5,95,0.00,,,0.00,VWS V14.01,2013-09-12 14:52:00,
2013-09-12 10:57:00,73.4,71.9,29.35,WSW,248,0.0,0.0,95,0.00,,,0.00,VWS V14.01,2013-09-12 14:57:00,
2013-09-12 11:02:00,73.8,72.2,29.35,SSW,202,2.5,2.5,95,0.00,,,0.00,VWS V14.01,2013-09-12 15:02:00,
2013-09-12 11:07:00,73.9,72.4,29.35,WSW,248,1.3,1.3,95,0.00,,,0.00,VWS V14.01,2013-09-12 15:07:00,
2013-09-12 11:12:00,74.1,72.6,29.38,WSW,248,3.4,3.4,95,0.00,,,0.00,VWS V14.01,2013-09-12 15:12:00,
2013-09-12 11:17:00,74.3,72.8,29.38,SSW,202,2.9,2.9,95,0.00,,,0.00,VWS V14.01,2013-09-12 15:17:00,
2013-09-12 11:22:00,74.5,72.6,29.38,WSW,248,0.0,0.0,94,0.00,,,0.00,VWS V14.01,2013-09-12 15:22:00,
2013-09-12 11:27:00,74.5,72.6,29.35,SSW,202,1.1,1.1,94,0.00,,,0.00,VWS V14.01,2013-09-12 15:27:00,
2013-09-12 11:32:00,74.7,72.5,29.35,ESE,112,1.6,1.6,93,0.00,,,0.00,VWS V14.01,2013-09-12 15:32:00,
2013-09-12 11:37:00,74.7,72.2,29.35,West,270,1.6,1.6,92,0.00,,,0.00,VWS V14.01,2013-09-12 15:37:00,
2013-09-12 11:42:00,74.7,72.2,29.38,WSW,248,0.0,0.0,92,0.00,,,0.00,VWS V14.01,2013-09-12 15:42:00,
2013-09-12 11:47:00,74.8,72.4,29.38,SSW,202,3.8,3.8,92,0.00,,,0.00,VWS V14.01,2013-09-12 15:47:00,
2013-09-12 11:52:00,75.0,72.5,29.38,West,270,3.6,3.6,92,0.00,,,0.00,VWS V14.01,2013-09-12 15:52:00,
2013-09-12 11:57:00,75.2,72.4,29.38,West,270,4.0,4.0,91,0.00,,,0.00,VWS V14.01,2013-09-12 15:57:00,
2013-09-12 12:03:00,75.4,72.2,29.38,West,270,0.0,0.0,90,0.00,,,0.00,VWS V14.01,2013-09-12 16:03:00,
2013-09-12 12:08:00,75.6,72.4,29.38,West,270,2.9,2.9,90,0.00,,,0.00,VWS V14.01,2013-09-12 16:08:00,
2013-09-12 12:13:00,75.7,72.6,29.38,SSW,202,0.0,0.0,90,0.00,,,0.00,VWS V14.01,2013-09-12 16:13:00,
2013-09-12 12:18:00,75.9,72.8,29.38,SW,225,1.3,1.3,90,0.00,,,0.00,VWS V14.01,2013-09-12 16:18:00,
2013-09-12 12:23:00,76.3,73.1,29.35,WSW,248,2.2,2.2,90,0.00,,,0.00,VWS V14.01,2013-09-12 16:23:00,
2013-09-12 12:28:00,76.5,73.3,29.35,WSW,248,0.0,0.0,90,0.00,,,0.00,VWS V14.01,2013-09-12 16:28:00,
2013-09-12 12:33:00,76.6,73.2,29.35,West,270,1.1,1.1,89,0.00,,,0.00,VWS V14.01,2013-09-12 16:33:00,
2013-09-12 12:38:00,76.8,73.3,29.35,West,270,2.5,2.5,89,0.00,,,0.00,VWS V14.01,2013-09-12 16:38:00,
2013-09-12 12:43:00,77.0,73.2,29.35,WSW,248,2.0,2.0,88,0.00,,,0.00,VWS V14.01,2013-09-12 16:43:00,
2013-09-12 12:48:00,77.4,73.5,29.35,West,270,2.0,2.0,88,0.00,,,0.00,VWS V14.01,2013-09-12 16:48:00,
2013-09-12 12:53:00,77.5,73.4,29.35,WSW,248,2.7,2.7,87,0.00,,,0.00,VWS V14.01,2013-09-12 16:53:00,
2013-09-12 12:58:00,77.7,73.6,29.35,WSW,248,0.0,0.0,87,0.00,,,0.00,VWS V14.01,2013-09-12 16:58:00,
2013-09-12 13:03:00,77.9,73.4,29.35,South,180,2.9,2.9,86,0.00,,,0.00,VWS V14.01,2013-09-12 17:03:00,
2013-09-12 13:08:00,77.9,72.7,29.35,West,270,5.6,5.6,84,0.00,,,0.00,VWS V14.01,2013-09-12 17:08:00,
2013-09-12 13:13:00,78.1,72.9,29.35,West,270,1.6,1.6,84,0.00,,,0.00,VWS V14.01,2013-09-12 17:13:00,
2013-09-12 13:19:00,78.3,72.3,29.35,West,270,2.5,2.5,82,0.00,,,0.00,VWS V14.01,2013-09-12 17:19:00,
2013-09-12 13:24:00,78.4,72.1,29.32,West,270,5.8,5.8,81,0.00,,,0.00,VWS V14.01,2013-09-12 17:24:00,
2013-09-12 13:29:00,78.6,71.9,29.32,WSW,248,3.6,3.6,80,0.00,,,0.00,VWS V14.01,2013-09-12 17:29:00,
2013-09-12 13:34:00,78.8,71.4,29.32,West,270,4.9,4.9,78,0.00,,,0.00,VWS V14.01,2013-09-12 17:34:00,
2013-09-12 13:39:00,79.2,72.1,29.32,WSW,248,2.7,2.7,79,0.00,,,0.00,VWS V14.01,2013-09-12 17:39:00,
2013-09-12 13:44:00,79.3,71.9,29.32,SSW,202,7.6,7.6,78,0.00,,,0.00,VWS V14.01,2013-09-12 17:44:00,
2013-09-12 13:49:00,79.5,72.4,29.32,WSW,248,5.8,5.8,79,0.00,,,0.00,VWS V14.01,2013-09-12 17:49:00,
2013-09-12 13:54:00,80.1,73.0,29.32,WSW,248,2.5,2.5,79,0.00,,,0.00,VWS V14.01,2013-09-12 17:54:00,
2013-09-12 13:59:00,80.4,71.8,29.32,WSW,248,2.0,2.0,75,0.00,,,0.00,VWS V14.01,2013-09-12 17:59:00,
2013-09-12 14:04:00,81.0,73.1,29.32,South,180,8.7,8.7,77,0.00,,,0.00,VWS V14.01,2013-09-12 18:04:00,
2013-09-12 14:09:00,81.1,73.2,29.32,WSW,248,1.6,1.6,77,0.00,,,0.00,VWS V14.01,2013-09-12 18:09:00,
2013-09-12 14:14:00,81.3,71.8,29.32,WSW,248,5.4,5.4,73,0.00,,,0.00,VWS V14.01,2013-09-12 18:14:00,
2013-09-12 14:19:00,81.9,71.9,29.32,WSW,248,3.8,3.8,72,0.00,,,0.00,VWS V14.01,2013-09-12 18:19:00,
2013-09-12 14:24:00,82.2,71.9,29.29,WNW,292,8.5,8.5,71,0.00,,,0.00,VWS V14.01,2013-09-12 18:24:00,
2013-09-12 14:29:00,82.2,71.5,29.29,West,270,2.5,2.5,70,0.00,,,0.00,VWS V14.01,2013-09-12 18:29:00,
2013-09-12 14:34:00,82.6,72.2,29.29,ESE,112,7.2,7.2,71,0.00,,,0.00,VWS V14.01,2013-09-12 18:34:00,
2013-09-12 14:39:00,82.8,71.1,29.26,WSW,248,5.6,5.6,68,0.00,,,0.00,VWS V14.01,2013-09-12 18:39:00,
2013-09-12 14:44:00,82.8,70.7,29.26,SSW,202,2.2,2.2,67,0.00,,,0.00,VWS V14.01,2013-09-12 18:44:00,
2013-09-12 14:49:00,82.8,71.1,29.26,SSW,202,4.0,4.0,68,0.00,,,0.00,VWS V14.01,2013-09-12 18:49:00,
2013-09-12 14:54:00,82.9,71.3,29.26,West,270,3.1,3.1,68,0.00,,,0.00,VWS V14.01,2013-09-12 18:54:00,
2013-09-12 14:59:00,83.1,71.5,29.26,South,180,4.3,4.3,68,0.00,,,0.00,VWS V14.01,2013-09-12 18:59:00,
2013-09-12 15:04:00,83.1,71.0,29.26,South,180,1.6,1.6,67,0.00,,,0.00,VWS V14.01,2013-09-12 19:04:00,
2013-09-12 15:09:00,82.8,69.8,29.26,WSW,248,1.1,1.1,65,0.00,,,0.00,VWS V14.01,2013-09-12 19:09:00,
2013-09-12 15:14:00,82.0,69.6,29.26,South,180,2.0,2.0,66,0.00,,,0.00,VWS V14.01,2013-09-12 19:14:00,
2013-09-12 15:19:00,81.7,69.7,29.26,SSW,202,1.6,1.6,67,0.00,,,0.00,VWS V14.01,2013-09-12 19:19:00,
2013-09-12 15:24:00,81.3,69.3,29.26,WNW,292,8.7,8.7,67,0.00,,,0.00,VWS V14.01,2013-09-12 19:24:00,
2013-09-12 15:29:00,79.0,60.4,29.26,NW,315,17.2,17.2,53,0.00,,,0.00,VWS V14.01,2013-09-12 19:29:00,
2013-09-12 15:34:00,76.1,59.3,29.26,West,270,6.5,6.5,56,0.00,,,0.00,VWS V14.01,2013-09-12 19:34:00,
2013-09-12 15:39:00,74.5,61.1,29.26,WNW,292,6.5,6.5,63,0.00,,,0.00,VWS V14.01,2013-09-12 19:39:00,
2013-09-12 15:44:00,73.2,62.0,29.26,WSW,248,11.0,11.0,68,0.00,,,0.00,VWS V14.01,2013-09-12 19:44:00,
2013-09-12 15:49:00,72.5,62.2,29.26,WSW,248,4.0,4.0,70,0.00,,,0.00,VWS V14.01,2013-09-12 19:49:00,
2013-09-12 15:54:00,72.0,62.8,29.23,SSW,202,2.0,2.0,73,0.00,,,0.00,VWS V14.01,2013-09-12 19:54:00,
2013-09-12 15:59:00,71.8,63.4,29.23,SSW,202,0.9,0.9,75,0.00,,,0.00,VWS V14.01,2013-09-12 19:59:00,
2013-09-12 16:04:00,71.6,64.0,29.23,ENE,68,1.6,1.6,77,0.00,,,0.00,VWS V14.01,2013-09-12 20:04:00,
2013-09-12 16:09:00,71.4,64.6,29.26,NNE,22,2.0,2.0,79,0.00,,,0.00,VWS V14.01,2013-09-12 20:09:00,
2013-09-12 16:14:00,71.4,64.9,29.26,NNE,22,2.5,2.5,80,0.00,,,0.00,VWS V14.01,2013-09-12 20:14:00,
2013-09-12 16:19:00,71.2,64.8,29.26,NNE,22,0.0,0.0,80,0.00,,,0.00,VWS V14.01,2013-09-12 20:19:00,
2013-09-12 16:25:00,71.1,65.3,29.26,SE,135,2.7,2.7,82,0.00,,,0.00,VWS V14.01,2013-09-12 20:25:00,
2013-09-12 16:30:00,71.1,65.6,29.26,ENE,68,0.0,0.0,83,0.00,,,0.00,VWS V14.01,2013-09-12 20:30:00,
2013-09-12 16:35:00,71.1,66.0,29.26,SSW,202,1.1,1.1,84,0.00,,,0.00,VWS V14.01,2013-09-12 20:35:00,
2013-09-12 16:40:00,71.2,66.5,29.26,SE,135,4.0,4.0,85,0.00,,,0.00,VWS V14.01,2013-09-12 20:40:00,
2013-09-12 16:45:00,71.2,66.5,29.26,South,180,2.9,2.9,85,0.00,,,0.00,VWS V14.01,2013-09-12 20:45:00,
2013-09-12 16:50:00,71.4,67.0,29.26,SSW,202,2.9,2.9,86,0.00,,,0.00,VWS V14.01,2013-09-12 20:50:00,
2013-09-12 16:55:00,71.6,67.2,29.26,SSW,202,2.5,2.5,86,0.00,,,0.00,VWS V14.01,2013-09-12 20:55:00,
2013-09-12 17:00:00,71.6,67.2,29.26,South,180,2.2,2.2,86,0.00,,,0.00,VWS V14.01,2013-09-12 21:00:00,
2013-09-12 17:05:00,71.8,67.4,29.26,West,270,1.6,1.6,86,0.00,,,0.00,VWS V14.01,2013-09-12 21:05:00,
2013-09-12 17:10:00,72.0,67.6,29.26,WSW,248,3.8,3.8,86,0.00,,,0.00,VWS V14.01,2013-09-12 21:10:00,
2013-09-12 17:15:00,72.1,67.4,29.26,WNW,292,2.2,2.2,85,0.00,,,0.00,VWS V14.01,2013-09-12 21:15:00,
2013-09-12 17:20:00,72.1,67.7,29.26,WSW,248,0.0,0.0,86,0.00,,,0.00,VWS V14.01,2013-09-12 21:20:00,
2013-09-12 17:25:00,72.5,68.1,29.23,WSW,248,0.0,0.0,86,0.00,,,0.00,VWS V14.01,2013-09-12 21:25:00,
2013-09-12 17:31:00,72.5,68.1,29.23,South,180,1.3,1.3,86,0.00,,,0.00,VWS V14.01,2013-09-12 21:31:00,
2013-09-12 17:36:00,72.5,68.1,29.23,South,180,0.9,0.9,86,0.00,,,0.00,VWS V14.01,2013-09-12 21:36:00,
2013-09-12 17:41:00,72.5,67.7,29.26,SSE,158,2.2,2.2,85,0.00,,,0.00,VWS V14.01,2013-09-12 21:41:00,
2013-09-12 17:46:00,72.3,67.6,29.26,South,180,1.6,1.6,85,0.00,,,0.00,VWS V14.01,2013-09-12 21:46:00,
2013-09-12 17:51:00,72.1,67.4,29.26,South,180,2.5,2.5,85,0.00,,,0.00,VWS V14.01,2013-09-12 21:51:00,
2013-09-12 17:56:00,72.1,67.4,29.26,SSW,202,1.3,1.3,85,0.00,,,0.00,VWS V14.01,2013-09-12 21:56:00,
2013-09-12 18:01:00,72.0,67.2,29.26,South,180,3.8,3.8,85,0.00,,,0.00,VWS V14.01,2013-09-12 22:01:00,
2013-09-12 18:06:00,71.8,66.7,29.26,South,180,0.0,0.0,84,0.00,,,0.00,VWS V14.01,2013-09-12 22:06:00,
2013-09-12 18:11:00,71.6,67.2,29.26,SE,135,1.1,1.1,86,0.00,,,0.00,VWS V14.01,2013-09-12 22:11:00,
2013-09-12 18:16:00,71.4,67.0,29.26,SSE,158,2.7,2.7,86,0.00,,,0.00,VWS V14.01,2013-09-12 22:16:00,
2013-09-12 18:21:00,71.2,66.8,29.26,SSW,202,2.7,2.7,86,0.00,,,0.00,VWS V14.01,2013-09-12 22:21:00,
2013-09-12 18:26:00,71.1,66.7,29.23,South,180,1.6,1.6,86,0.00,,,0.00,VWS V14.01,2013-09-12 22:26:00,
2013-09-12 18:31:00,70.9,66.5,29.23,SSW,202,2.9,2.9,86,0.00,,,0.00,VWS V14.01,2013-09-12 22:31:00,
2013-09-12 18:37:00,70.7,66.3,29.23,South,180,2.5,2.5,86,0.00,,,0.00,VWS V14.01,2013-09-12 22:37:00,
2013-09-12 18:42:00,70.5,66.1,29.26,SSW,202,3.1,3.1,86,0.00,,,0.00,VWS V14.01,2013-09-12 22:42:00,
2013-09-12 18:47:00,70.3,66.0,29.26,SSE,158,3.4,3.4,86,0.00,,,0.00,VWS V14.01,2013-09-12 22:47:00,
2013-09-12 18:52:00,70.3,66.3,29.26,SSE,158,2.7,2.7,87,0.00,,,0.00,VWS V14.01,2013-09-12 22:52:00,
2013-09-12 18:57:00,70.2,66.1,29.26,SSW,202,0.0,0.0,87,0.00,,,0.00,VWS V14.01,2013-09-12 22:57:00,
2013-09-12 19:02:00,70.2,66.4,29.26,SE,135,2.7,2.7,88,0.00,,,0.00,VWS V14.01,2013-09-12 23:02:00,
2013-09-12 19:07:00,70.2,66.4,29.26,SSW,202,2.0,2.0,88,0.00,,,0.00,VWS V14.01,2013-09-12 23:07:00,
2013-09-12 19:12:00,70.0,66.3,29.26,SSW,202,1.3,1.3,88,0.00,,,0.00,VWS V14.01,2013-09-12 23:12:00,
2013-09-12 19:17:00,70.0,66.3,29.26,West,270,0.0,0.0,88,0.00,,,0.00,VWS V14.01,2013-09-12 23:17:00,
2013-09-12 19:22:00,70.0,66.3,29.26,West,270,2.5,2.5,88,0.00,,,0.00,VWS V14.01,2013-09-12 23:22:00,
2013-09-12 19:27:00,69.8,66.1,29.23,West,270,2.7,2.7,88,0.00,,,0.00,VWS V14.01,2013-09-12 23:27:00,
2013-09-12 19:32:00,69.8,66.1,29.23,West,270,3.4,3.4,88,0.00,,,0.00,VWS V14.01,2013-09-12 23:32:00,
2013-09-12 19:37:00,69.8,66.1,29.26,WNW,292,0.0,0.0,88,0.00,,,0.00,VWS V14.01,2013-09-12 23:37:00,
2013-09-12 19:42:00,69.8,66.4,29.26,WNW,292,0.0,0.0,89,0.00,,,0.00,VWS V14.01,2013-09-12 23:42:00,
2013-09-12 19:47:00,69.8,66.4,29.26,WNW,292,0.0,0.0,89,0.00,,,0.00,VWS V14.01,2013-09-12 23:47:00,
2013-09-12 19:53:00,69.8,66.7,29.26,WNW,292,0.0,0.0,90,0.00,,,0.00,VWS V14.01,2013-09-12 23:53:00,
2013-09-12 19:58:00,69.6,66.6,29.26,WNW,292,1.6,1.6,90,0.00,,,0.00,VWS V14.01,2013-09-12 23:58:00,
2013-09-12 20:03:00,69.6,66.6,29.26,WNW,292,0.0,0.0,90,0.00,,,0.00,VWS V14.01,2013-09-13 00:03:00,
2013-09-12 20:08:00,69.6,66.6,29.26,WNW,292,0.0,0.0,90,0.00,,,0.00,VWS V14.01,2013-09-13 00:08:00,
2013-09-12 20:13:00,69.4,66.7,29.26,WSW,248,2.2,2.2,91,0.00,,,0.00,VWS V14.01,2013-09-13 00:13:00,
2013-09-12 20:18:00,69.4,66.7,29.26,West,270,0.0,0.0,91,0.00,,,0.00,VWS V14.01,2013-09-13 00:18:00,
2013-09-12 20:23:00,69.4,66.7,29.26,WNW,292,0.0,0.0,91,0.00,,,0.00,VWS V14.01,2013-09-13 00:23:00,
2013-09-12 20:28:00,69.4,66.7,29.26,South,180,0.0,0.0,91,0.00,,,0.00,VWS V14.01,2013-09-13 00:28:00,
2013-09-12 20:33:00,69.4,66.7,29.26,SSW,202,0.0,0.0,91,0.00,,,0.00,VWS V14.01,2013-09-13 00:33:00,
2013-09-12 20:38:00,69.3,66.5,29.26,SSW,202,0.0,0.0,91,0.00,,,0.00,VWS V14.01,2013-09-13 00:38:00,
2013-09-12 20:43:00,69.3,66.8,29.26,South,180,0.0,0.0,92,0.00,,,0.00,VWS V14.01,2013-09-13 00:43:00,
2013-09-12 20:48:00,69.3,66.8,29.26,WNW,292,0.0,0.0,92,0.00,,,0.00,VWS V14.01,2013-09-13 00:48:00,
2013-09-12 20:53:00,69.3,66.8,29.23,NE,45,0.0,0.0,92,0.00,,,0.00,VWS V14.01,2013-09-13 00:53:00,
2013-09-12 20:59:00,69.1,66.7,29.23,NE,45,0.0,0.0,92,0.00,,,0.00,VWS V14.01,2013-09-13 00:59:00,
2013-09-12 21:04:00,69.1,66.7,29.23,NE,45,0.0,0.0,92,0.00,,,0.00,VWS V14.01,2013-09-13 01:04:00,
2013-09-12 21:09:00,69.1,66.7,29.26,East,90,0.0,0.0,92,0.00,,,0.00,VWS V14.01,2013-09-13 01:09:00,
2013-09-12 21:14:00,69.1,67.0,29.26,WSW,248,0.0,0.0,93,0.00,,,0.00,VWS V14.01,2013-09-13 01:14:00,
2013-09-12 21:19:00,69.1,67.0,29.26,SW,225,0.0,0.0,93,0.00,,,0.00,VWS V14.01,2013-09-13 01:19:00,
2013-09-12 21:24:00,69.1,67.0,29.23,SW,225,0.0,0.0,93,0.00,,,0.00,VWS V14.01,2013-09-13 01:24:00,
2013-09-12 21:29:00,69.1,67.0,29.23,SSW,202,1.3,1.3,93,0.00,,,0.00,VWS V14.01,2013-09-13 01:29:00,
2013-09-12 21:34:00,69.1,67.0,29.23,SSW,202,1.6,1.6,93,0.00,,,0.00,VWS V14.01,2013-09-13 01:34:00,
2013-09-12 21:39:00,69.3,67.2,29.26,SW,225,0.0,0.0,93,0.00,,,0.00,VWS V14.01,2013-09-13 01:39:00,
2013-09-12 21:44:00,69.3,67.2,29.26,SW,225,2.9,2.9,93,0.00,,,0.00,VWS V14.01,2013-09-13 01:44:00,
2013-09-12 21:49:00,69.3,66.8,29.26,West,270,0.0,0.0,92,0.00,,,0.00,VWS V14.01,2013-09-13 01:49:00,
2013-09-12 21:54:00,69.3,66.8,29.26,West,270,6.3,6.3,92,0.00,,,0.00,VWS V14.01,2013-09-13 01:54:00,
2013-09-12 21:59:00,69.3,66.8,29.26,West,270,3.4,3.4,92,0.00,,,0.00,VWS V14.01,2013-09-13 01:59:00,
2013-09-12 22:04:00,69.4,66.7,29.26,SSW,202,1.1,1.1,91,0.00,,,0.00,VWS V14.01,2013-09-13 02:04:00,
2013-09-12 22:09:00,69.3,66.5,29.26,WSW,248,1.6,1.6,91,0.00,,,0.00,VWS V14.01,2013-09-13 02:09:00,
2013-09-12 22:15:00,69.3,66.5,29.26,WSW,248,0.0,0.0,91,0.00,,,0.00,VWS V14.01,2013-09-13 02:15:00,
2013-09-12 22:20:00,69.3,66.8,29.26,WNW,292,0.0,0.0,92,0.00,,,0.00,VWS V14.01,2013-09-13 02:20:00,
2013-09-12 22:25:00,69.1,66.7,29.26,NNE,22,0.0,0.0,92,0.00,,,0.00,VWS V14.01,2013-09-13 02:25:00,
2013-09-12 22:30:00,69.1,66.7,29.26,NNE,22,0.0,0.0,92,0.00,,,0.00,VWS V14.01,2013-09-13 02:30:00,
2013-09-12 22:35:00,68.9,66.5,29.26,NNW,338,0.0,0.0,92,0.00,,,0.00,VWS V14.01,2013-09-13 02:35:00,
2013-09-12 22:40:00,69.1,66.7,29.26,West,270,0.0,0.0,92,0.00,,,0.00,VWS V14.01,2013-09-13 02:40:00,
2013-09-12 22:45:00,69.1,66.7,29.26,West,270,2.0,2.0,92,0.00,,,0.00,VWS V14.01,2013-09-13 02:45:00,
2013-09-12 22:50:00,69.1,66.3,29.26,West,270,0.0,0.0,91,0.00,,,0.00,VWS V14.01,2013-09-13 02:50:00,
2013-09-12 22:55:00,69.1,66.3,29.26,NW,315,0.0,0.0,91,0.00,,,0.00,VWS V14.01,2013-09-13 02:55:00,
2013-09-12 23:00:00,69.1,66.3,29.26,NW,315,0.0,0.0,91,0.00,,,0.00,VWS V14.01,2013-09-13 03:00:00,
2013-09-12 23:05:00,69.1,66.3,29.26,NW,315,0.0,0.0,91,0.00,,,0.00,VWS V14.01,2013-09-13 03:05:00,
2013-09-12 23:10:00,68.9,66.5,29.23,SSW,202,2.0,2.0,92,0.00,,,0.00,VWS V14.01,2013-09-13 03:10:00,
2013-09-12 23:15:00,68.9,66.5,29.23,SSW,202,1.1,1.1,92,0.00,,,0.00,VWS V14.01,2013-09-13 03:15:00,
2013-09-12 23:21:00,68.7,66.3,29.23,WSW,248,0.0,0.0,92,0.00,,,0.00,VWS V14.01,2013-09-13 03:21:00,
2013-09-12 23:26:00,68.5,65.8,29.23,West,270,0.0,0.0,91,0.00,,,0.00,VWS V14.01,2013-09-13 03:26:00,
2013-09-12 23:31:00,68.5,65.8,29.23,SW,225,0.0,0.0,91,0.00,,,0.00,VWS V14.01,2013-09-13 03:31:00,
2013-09-12 23:36:00,68.4,65.9,29.23,South,180,2.2,2.2,92,0.00,,,0.00,VWS V14.01,2013-09-13 03:36:00,
2013-09-12 23:41:00,68.4,65.9,29.23,SSE,158,0.0,0.0,92,0.00,,,0.00,VWS V14.01,2013-09-13 03:41:00,
2013-09-12 23:46:00,68.5,66.4,29.23,WNW,292,0.0,0.0,93,0.00,,,0.00,VWS V14.01,2013-09-13 03:46:00,
2013-09-12 23:51:00,68.4,66.3,29.23,West,270,2.7,2.7,93,0.00,,,0.00,VWS V14.01,2013-09-13 03:51:00,
2013-09-12 23:56:00,68.4,65.9,29.23,West,270,3.4,3.4,92,0.00,,,0.00,VWS V14.01,2013-09-13 03:56:00,